Showing default

OMNI-L1, 52157

Orbit data source: Space-Track

OMNI-L1, 52157 is a payload satellite owned by OmniSpace (US) in SSO that was launched on Fri, 01 Apr 2022 UTC via an FALCON 9 launch vehicle from the Air Force Eastern Test Range (AFETR). Payload-class satellites include a variety of spacecraft equipped with specific instruments for various scientific and technological missions. These include communications satellites like Starlink; space stations such as the ISS; scientific satellites like the Hubble; Earth observation satellites from companies like Planet Labs, Umbra, and HawkEye 360; GPS; miniature CubeSats for education and research; and military/defense satellites.

Loading next visibility...
Identifier
52157, 2022-033A
Orbit
SSO
Country
Flag of USUS
Related business
Manufacturer
NANAV/THALES
Mission
Operational Commercial Communications
Bus & Motor
CUBESAT 12U, Unknown motor
Mass
~20 kg wet, ~20 kg dry
Launch date (UTC)
2022-04-01 (4 years ago)
Launch vehicle
FALCON 9
Launch site
Air Force Eastern Test Range (AFETR)
Object type
Payload
Rocket body
Debris
Shape & HBR
Box + 2 Pan, 0.5 m
Radar Cross Section
0.126 m², Medium (>0.1 m² and < 1m²)

Expand to show TLE details & history
Last TLE update: 19 hours ago

TLE from 19 hours ago
0 OMNI-L1
1 52157U 22033A   25305.47289597  .00003305  00000-0  42865-3 0  9995
2 52157  97.8603  24.0399 0004246 316.4605  43.6272 14.81449689193723
Epoch: 2025-11-01T11:20Z
TLE epoch observation values (Epoch: 2025-11-01T11:20:58.211Z)
Latitude
-0.00006°
Longitude
172.79489°
Altitude
625.624 km
Speed
7.547 km/s
True Right ascension
01h 36m 09s
True Declination
0° 00' 00"
Sunlit
Object was in full shadow at epoch
Visualization orbit readout
Latitude
Unknown
Longitude
Unknown
Altitude
Unknown
Speed
Unknown
Apparent Right ascension
Unknown
Apparent Declination
Unknown
Sunlit
N/A
Visualization observer readout
Local Sidereal Time
02:28:55
Azimuth
Unknown
Elevation
Unknown
Doppler factor
Unknown
Orbital elements
Apogee altitude
624.761 km
Perigee altitude
618.817 km
Semi-major axis
6,999.926 km
Eccentricity
0.00042
Inclination
97.8603°
RAAN
24.0399°
Arg. of periapsis
316.4605°
True anomaly
43.66078°
Mean anomaly
43.6272°
Eccentric anomaly
43.64399°
Mean motion
3.70598 °/min
Orbital period
97.14 mins
BSTAR
0.00042865
Loading maneuver chart data...
Computing Atmospheric mass density...
Loading historical data...
Loading historical data...
Loading historical data...
Loading historical data...
Loading historical data...
Loading historical data...
Loading historical data...

Documentation

Showing up to 5 results
|